HS5SQI-1 Weather Reports


time (UTC)temp
F
wind
direction
speed
knots
gust
knots
rain 1hr
in
rain 24hr
in
rain mn
in
humidity
%
barometer
mb
20260503221814 79 0 0.0 0.0 0.00 0.00 0.00 99 966.0
20260503220752 79 0 0.0 0.0 0.00 0.00 0.00 99 966.0
20260503215730 79 0 0.0 0.0 0.00 0.00 0.00 99 966.0
20260503214709 79 0 0.0 0.0 0.00 0.00 0.00 99 966.0
20260503213647 79 0 0.0 0.0 0.00 0.00 0.00 99 966.0
20260503212625 78 0 0.0 0.0 0.00 0.00 0.00 99 966.0
20260503211602 77 0 0.0 0.0 0.00 0.00 0.00 99 966.0
20260503210540 78 0 0.0 0.0 0.00 0.00 0.00 99 966.0
20260503205518 78 0 0.0 0.0 0.00 0.00 0.00 99 966.0
20260503204456 79 0 0.0 0.0 0.00 0.00 0.00 99 966.0
20260503203434 79 0 0.0 0.0 0.00 0.00 0.00 99 965.0
20260503202412 78 0 0.0 0.0 0.00 0.00 0.00 99 966.0
20260503201350 78 0 0.0 0.0 0.00 0.00 0.00 99 965.0
20260503200328 78 0 0.0 0.0 0.00 0.00 0.00 99 966.0
20260503195322 79 0 0.0 0.0 0.00 0.00 0.00 99 965.0
20260503194259 79 0 0.0 0.0 0.00 0.00 0.00 99 965.0
20260503193237 78 0 0.0 0.0 0.00 0.00 0.00 99 965.0
20260503192215 78 0 0.0 0.0 0.00 0.00 0.00 99 965.0
20260503191153 79 0 0.0 0.0 0.00 0.00 0.00 99 966.0
20260503190131 79 0 0.0 0.0 0.00 0.00 0.00 99 966.0
20260503185109 77 0 0.0 0.0 0.00 0.00 0.00 99 966.0
20260503184047 78 0 0.0 0.0 0.00 0.00 0.00 99 966.0
20260503183025 78 0 0.0 0.0 0.00 0.00 0.00 99 966.0
20260503182004 79 0 0.0 0.0 0.00 0.00 0.00 99 966.0
20260503180941 80 0 0.0 0.0 0.00 0.00 0.00 99 966.0
20260503175919 80 0 0.0 0.0 0.00 0.00 0.00 99 966.0
20260503174857 80 0 0.0 0.0 0.00 0.00 0.00 99 966.0
20260503173835 81 0 0.0 0.0 0.00 0.00 0.00 99 966.0
20260503172813 82 0 0.0 0.0 0.00 0.00 0.00 99 966.0
20260503171751 82 0 0.0 0.0 0.00 0.00 0.00 99 966.0
20260503170729 80 0 0.0 0.0 0.00 0.00 0.00 99 966.0
20260503150238 79 0 0.0 0.0 0.00 0.00 0.00 99 966.0
20260503130836 84 0 0.0 0.0 0.00 0.00 0.00 99 963.0
20260503110412 94 0 0.0 0.0 0.00 0.00 0.00 58 962.0
20260503100200 95 0 0.0 0.0 0.00 0.00 0.00 52 961.0
20260503080757 98 0 0.0 0.0 0.00 0.00 0.00 52 962.0
20260503072629 97 0 0.0 0.0 0.00 0.00 0.00 56 963.0
20260503071607 96 0 0.0 0.0 0.00 0.00 0.00 57 963.0
20260503070545 96 0 0.0 0.0 0.00 0.00 0.00 55 963.0
20260503060333 94 0 0.0 0.0 0.00 0.00 0.00 66 965.0
20260503054249 94 0 0.0 0.0 0.00 0.00 0.00 68 965.0
20260503053227 93 0 0.0 0.0 0.00 0.00 0.00 71 965.0
20260503052205 93 0 0.0 0.0 0.00 0.00 0.00 69 965.0
20260503051143 92 0 0.0 0.0 0.00 0.00 0.00 66 966.0
20260503050121 92 0 0.0 0.0 0.00 0.00 0.00 69 966.0
20260503045059 92 0 0.0 0.0 0.00 0.00 0.00 67 966.0
20260503044037 92 0 0.0 0.0 0.00 0.00 0.00 69 966.0
20260503043015 91 0 0.0 0.0 0.00 0.00 0.00 82 966.0
20260503041953 91 0 0.0 0.0 0.00 0.00 0.00 82 966.0
20260503040931 90 0 0.0 0.0 0.00 0.00 0.00 91 966.0
20260503035909 89 0 0.0 0.0 0.00 0.00 0.00 92 966.0
20260503034847 88 0 0.0 0.0 0.00 0.00 0.00 88 967.0
20260503033825 87 0 0.0 0.0 0.00 0.00 0.00 99 967.0
20260503032803 88 0 0.0 0.0 0.00 0.00 0.00 99 967.0
20260503031741 87 0 0.0 0.0 0.00 0.00 0.00 99 967.0
20260503030719 86 0 0.0 0.0 0.00 0.00 0.00 99 967.0
20260503025657 86 0 0.0 0.0 0.00 0.00 0.00 99 967.0
20260503024635 85 0 0.0 0.0 0.00 0.00 0.00 99 967.0
20260503023613 84 0 0.0 0.0 0.00 0.00 0.00 99 967.0
20260503022551 84 0 0.0 0.0 0.00 0.00 0.00 99 967.0
20260503021529 83 0 0.0 0.0 0.00 0.00 0.00 99 967.0
20260503020507 83 0 0.0 0.0 0.00 0.00 0.00 99 967.0
20260503015445 82 0 0.0 0.0 0.00 0.00 0.00 99 967.0
20260503014423 82 0 0.0 0.0 0.00 0.00 0.00 99 967.0
20260503013401 81 0 0.0 0.0 0.00 0.00 0.00 99 967.0
20260503012338 81 0 0.0 0.0 0.00 0.00 0.00 99 967.0
20260503011316 81 0 0.0 0.0 0.00 0.00 0.00 99 967.0
20260503010254 81 0 0.0 0.0 0.00 0.00 0.00 99 967.0
20260503005232 81 0 0.0 0.0 0.00 0.00 0.00 99 966.0
20260503004210 80 0 0.0 0.0 0.00 0.00 0.00 99 966.0
20260503003148 81 0 0.0 0.0 0.00 0.00 0.00 99 966.0
20260503002126 81 0 0.0 0.0 0.00 0.00 0.00 99 966.0
20260503001104 81 0 0.0 0.0 0.00 0.00 0.00 99 966.0
20260503000042 81 0 0.0 0.0 0.00 0.00 0.00 99 966.0
20260502235020 80 0 0.0 0.0 0.00 0.00 0.00 99 966.0
20260502233958 79 0 0.0 0.0 0.00 0.00 0.00 99 965.0
20260502232936 79 0 0.0 0.0 0.00 0.00 0.00 99 965.0
20260502231914 79 0 0.0 0.0 0.00 0.00 0.00 99 965.0
20260502230852 78 0 0.0 0.0 0.00 0.00 0.00 99 965.0
20260502225830 79 0 0.0 0.0 0.00 0.00 0.00 99 965.0
20260502224808 79 0 0.0 0.0 0.00 0.00 0.00 99 965.0
20260502223746 80 0 0.0 0.0 0.00 0.00 0.00 99 965.0